ANA611 RJGG-VHHH

Flight info

Callsign ANA611
Flight time N/A
Altitude 34000
Route ESPAN KEC Y24 KOSHI Y50 IGMON A1 ELATO V522 ABBEY
Aircraft B77W/H-SDE1E2E3FGHIJ2J3J4J5M1RWXY/LB1D1

Departure

Time 2026-05-06 01:19
Airport Chubu Centrair International Airport (RJGG)

Arrival

Time N/A
Airport Hong Kong International Airport (VHHH)
Time Latitude Longitude Altitude Speed Heading
2026-05-06 00:52 34.85762 136.81096 30 ft 0 kts 349°
2026-05-06 01:10 34.85752 136.81099 30 ft 2 kts 349°
2026-05-06 01:10 34.85742 136.81100 30 ft 2 kts 349°
2026-05-06 01:10 34.85722 136.81107 30 ft 2 kts 349°
2026-05-06 01:11 34.85713 136.81108 30 ft 2 kts 346°
2026-05-06 01:11 34.85699 136.81116 30 ft 2 kts 321°
2026-05-06 01:11 34.85689 136.81128 30 ft 2 kts 301°
2026-05-06 01:11 34.85683 136.81145 30 ft 2 kts 281°
2026-05-06 01:12 34.85682 136.81163 30 ft 1 kts 262°
2026-05-06 01:12 34.85683 136.81169 30 ft 0 kts 258°
2026-05-06 01:14 34.85677 136.81133 30 ft 6 kts 259°
2026-05-06 01:14 34.85667 136.81064 30 ft 10 kts 260°
2026-05-06 01:14 34.85644 136.80971 30 ft 12 kts 222°
2026-05-06 01:15 34.85548 136.80966 30 ft 16 kts 171°
2026-05-06 01:15 34.85424 136.80997 30 ft 20 kts 169°
2026-05-06 01:15 34.85280 136.81030 30 ft 21 kts 169°
2026-05-06 01:15 34.85134 136.81064 30 ft 21 kts 169°
2026-05-06 01:16 34.84985 136.81100 30 ft 21 kts 168°
2026-05-06 01:16 34.84836 136.81139 30 ft 22 kts 168°
2026-05-06 01:16 34.84686 136.81174 30 ft 22 kts 170°
2026-05-06 01:16 34.84532 136.81207 30 ft 22 kts 169°
2026-05-06 01:17 34.84399 136.81236 30 ft 16 kts 192°
2026-05-06 01:17 34.84343 136.81134 30 ft 14 kts 260°
2026-05-06 01:17 34.84327 136.81023 30 ft 12 kts 259°
2026-05-06 01:17 34.84326 136.80927 30 ft 10 kts 302°
2026-05-06 01:18 34.84380 136.80893 30 ft 9 kts 347°
2026-05-06 01:18 34.84493 136.80865 30 ft 40 kts 349°
2026-05-06 01:18 34.85015 136.80740 30 ft 109 kts 349°
2026-05-06 01:18 34.85954 136.80513 43 ft 164 kts 347°
2026-05-06 01:19 34.87100 136.80237 587 ft 170 kts 349°
2026-05-06 01:19 34.88192 136.79639 1168 ft 182 kts 316°
2026-05-06 01:19 34.88931 136.78386 1649 ft 190 kts 292°
2026-05-06 01:19 34.89188 136.76727 1944 ft 209 kts 264°
2026-05-06 01:20 34.88744 136.74999 2316 ft 224 kts 234°
2026-05-06 01:20 34.87578 136.73706 2737 ft 237 kts 207°
2026-05-06 01:20 34.86077 136.72761 3310 ft 251 kts 205°
2026-05-06 01:20 34.84485 136.71820 4103 ft 256 kts 203°
2026-05-06 01:21 34.82768 136.71335 4898 ft 258 kts 178°
2026-05-06 01:21 34.80992 136.71609 5742 ft 260 kts 169°
2026-05-06 01:21 34.79213 136.71840 6490 ft 263 kts 186°
2026-05-06 01:21 34.77394 136.71506 7275 ft 266 kts 190°
2026-05-06 01:22 34.75565 136.71103 8048 ft 269 kts 191°
2026-05-06 01:22 34.73709 136.70692 8734 ft 275 kts 191°
2026-05-06 01:22 34.71844 136.70279 9523 ft 277 kts 191°
2026-05-06 01:22 34.70016 136.69650 10187 ft 280 kts 207°
2026-05-06 01:23 34.68269 136.68460 10617 ft 296 kts 211°
2026-05-06 01:23 34.66440 136.67127 11007 ft 313 kts 212°
2026-05-06 01:23 34.64543 136.65736 11461 ft 329 kts 212°
2026-05-06 01:23 34.62543 136.64270 11950 ft 344 kts 212°
2026-05-06 01:24 34.60450 136.62738 12484 ft 357 kts 212°
2026-05-06 01:24 34.58297 136.61162 13220 ft 365 kts 212°
2026-05-06 01:24 34.56141 136.59587 14109 ft 368 kts 213°
2026-05-06 01:24 34.53968 136.58000 15140 ft 367 kts 213°
2026-05-06 01:25 34.51783 136.56404 16188 ft 366 kts 213°
2026-05-06 01:25 34.49607 136.54817 17129 ft 367 kts 213°
2026-05-06 01:25 34.47409 136.53214 17975 ft 371 kts 214°
2026-05-06 01:25 34.45221 136.51619 18857 ft 372 kts 214°
2026-05-06 01:26 34.43023 136.50018 19771 ft 372 kts 215°
2026-05-06 01:26 34.40816 136.48412 20609 ft 373 kts 215°
2026-05-06 01:26 34.38592 136.46794 21422 ft 374 kts 215°
2026-05-06 01:26 34.36370 136.45178 22223 ft 375 kts 216°
2026-05-06 01:27 34.34117 136.43541 22967 ft 376 kts 215°
2026-05-06 01:27 34.31897 136.41928 23692 ft 378 kts 216°
2026-05-06 01:27 34.29625 136.40280 24406 ft 380 kts 216°
2026-05-06 01:27 34.27369 136.38643 25046 ft 384 kts 216°
2026-05-06 01:28 34.25053 136.36963 25689 ft 388 kts 216°
2026-05-06 01:28 34.22751 136.35295 26266 ft 392 kts 216°
2026-05-06 01:28 34.20396 136.33591 26973 ft 394 kts 215°
2026-05-06 01:28 34.18055 136.31897 27679 ft 395 kts 216°
2026-05-06 01:29 34.15693 136.30190 28364 ft 397 kts 215°
2026-05-06 01:29 34.13335 136.28485 28958 ft 400 kts 216°
2026-05-06 01:29 34.10918 136.26739 29508 ft 404 kts 215°
2026-05-06 01:29 34.08503 136.24997 30072 ft 408 kts 216°
2026-05-06 01:30 34.06062 136.23236 30700 ft 410 kts 215°
2026-05-06 01:30 34.03630 136.21483 31249 ft 413 kts 215°
2026-05-06 01:30 34.01140 136.19690 31887 ft 414 kts 215°
2026-05-06 01:30 33.98708 136.17943 32561 ft 412 kts 216°
2026-05-06 01:31 33.96244 136.16173 33283 ft 410 kts 216°
2026-05-06 01:31 33.93812 136.14426 33930 ft 408 kts 216°
2026-05-06 01:31 33.91331 136.12645 34207 ft 410 kts 215°
2026-05-06 01:31 33.88891 136.10895 34209 ft 405 kts 217°
2026-05-06 01:32 33.84057 136.07428 34211 ft 404 kts 217°
2026-05-06 01:32 33.79764 136.03238 34208 ft 398 kts 229°
2026-05-06 01:33 33.76474 135.97945 34217 ft 396 kts 240°
2026-05-06 01:33 33.74255 135.91885 34211 ft 397 kts 246°
2026-05-06 01:34 33.72262 135.85707 34203 ft 396 kts 248°
2026-05-06 01:34 33.70260 135.79512 34192 ft 396 kts 247°
2026-05-06 01:35 33.68271 135.73369 34183 ft 397 kts 247°
2026-05-06 01:35 33.66261 135.67174 34189 ft 397 kts 247°
2026-05-06 01:36 33.64259 135.61015 34188 ft 396 kts 246°
2026-05-06 01:36 33.62252 135.54851 34173 ft 397 kts 247°
2026-05-06 01:37 33.60245 135.48700 34174 ft 397 kts 246°
2026-05-06 01:37 33.58233 135.42549 34168 ft 399 kts 247°
2026-05-06 01:38 33.56213 135.36381 34167 ft 397 kts 247°
2026-05-06 01:38 33.54197 135.30244 34187 ft 397 kts 247°
2026-05-06 01:39 33.52164 135.24065 34172 ft 396 kts 246°
2026-05-06 01:39 33.50149 135.17950 34170 ft 394 kts 247°
2026-05-06 01:40 33.48138 135.11859 34162 ft 396 kts 246°
2026-05-06 01:40 33.46118 135.05756 34160 ft 396 kts 246°
2026-05-06 01:41 33.44078 134.99603 34150 ft 397 kts 246°
2026-05-06 01:41 33.42038 134.93465 34153 ft 397 kts 246°